Location: Islip Terrace
(40.7432°N, 73.1926°W)
Time: 13:55:09
(UTC+00:00)

Daily predictions for brighter satellites

Satellite Brightness Start Highest point End
(mag) Time Altitude Azimuth Time Altitude Azimuth Time Altitude Azimuth
Cosmos 1939 Rocket 3.2 21:51:00 10° SSE 21:54:57 47° ENE 21:58:54 10° N
H-2A R/B 3.0 21:51:15 10° ESE 21:55:26 26° ENE 21:59:34 10° NNE
Cosmos 1656 3.7 21:51:32 10° NNW 21:57:07 82° ENE 22:02:44 10° SSE
Cosmos 1812 4.4 21:56:15 10° ESE 21:58:27 15° E 22:00:40 10° NE
FengYun 1-2 T 4.2 21:53:40 10° SSE 21:59:13 67° ENE 22:04:44 10° N
COSMO-SKYMED 1 4.1 21:58:32 10° NE 22:01:30 18° E 22:04:25 10° SE
USA 276 2.2 22:02:08 10° NW 22:05:13 54° NNE 22:08:16 10° ESE
Cosmos 1763 Rocket 3.5 22:00:41 10° SSW 22:05:44 87° WNW 22:10:52 10° NNE
Cosmos 2034 Rocket 4.1 22:02:00 10° S 22:08:09 82° W 22:14:20 10° N
Meteor PRIRODA 4.2 22:05:29 10° S 22:09:04 63° W 22:12:41 10° NNW
Cosmos 1697 Rocket 2.8 22:03:53 10° NNW 22:09:21 51° ENE 22:14:49 10° SE
Cosmos 841 Rocket 3.8 22:06:35 10° S 22:11:28 44° ESE 22:16:20 10° NNE
Cosmos 1980 Rocket 3.0 22:08:14 10° N 22:13:09 30° NE 22:18:02 10° ESE
Cosmos 2369 4.2 22:07:58 10° N 22:13:16 37° ENE 22:18:32 10° SE
Cosmos 1602 3.9 22:13:18 10° N 22:17:04 49° E 22:20:49 10° SSE
Cosmos 1937 Rocket 3.7 22:12:31 10° N 22:17:41 49° ENE 22:22:48 10° SE
Meteor 1-25 Rocket 4.1 22:14:39 10° N 22:20:14 75° E 22:25:50 10° SSE
Cosmos 1782 3.0 22:16:56 10° S 22:20:48 50° E 22:24:41 10° NNE
Okean O Rocket 2.7 22:17:30 10° ESE 22:20:57 22° ENE 22:24:24 10° NNE
NOAA 6 4.0 22:16:48 10° SSE 22:21:56 85° ENE 22:27:06 10° NNW
SL-16 R/B 4.0 22:21:05 10° NNE 22:22:53 11° NE 22:23:09 11° NE
Cosmos 2082 Rocket 2.4 22:18:49 10° S 22:24:17 51° ESE 22:29:46 10° NNE
Cosmos 1151 Rocket 3.8 22:20:53 10° SSE 22:24:38 30° E 22:28:24 10° NNE
Cosmos 1743 Rocket 3.7 22:20:57 10° N 22:25:17 77° W 22:29:36 10° S
Cosmos 990 Rocket 4.2 22:20:43 10° NNW 22:25:54 75° WSW 22:31:01 10° S
Meteor 2-21 4.5 22:20:44 10° N 22:26:43 56° E 22:32:37 10° SSE
USA 267 4.0 22:20:47 10° NE 22:26:56 46° NNW 22:33:05 10° W
ISS -2.1 22:25:24 10° NNW 22:28:02 20° NNE 22:29:11 17° NE
Cosmos 1634 Rocket 4.0 22:23:20 10° S 22:29:35 69° E 22:35:53 10° NNE
CORIOLIS 4.2 22:24:18 10° SSE 22:29:41 88° ENE 22:35:08 10° NNW
CZ-4B DEB 4.2 22:25:27 10° SSE 22:30:57 78° ENE 22:36:28 10° N
Cosmos 372 Rocket 4.4 22:26:22 10° N 22:31:18 40° ENE 22:36:14 10° SE
Cosmos 1340 Rocket 4.2 22:30:47 10° NNW 22:34:39 43° W 22:38:31 10° SSW
CZ-2D R/B 3.2 22:31:52 10° SSE 22:35:39 64° ENE 22:39:26 10° N
Cosmos 1666 Rocket 4.1 22:32:36 10° N 22:36:42 35° ENE 22:40:45 10° SE
Cosmos 2278 4.3 22:32:29 10° N 22:37:37 33° ENE 22:42:42 10° ESE
Cosmos 1328 Rocket 4.3 22:35:41 10° SSE 22:39:35 31° E 22:42:12 17° NE
Cosmos 2026 Rocket 3.9 22:33:43 10° N 22:39:53 79° E 22:45:56 10° S
MOS 1-B Rocket 4.1 22:35:32 10° NNE 22:41:30 71° ESE 22:48:19 10° S
COSMOS 2406 3.5 22:36:53 10° SSW 22:42:37 69° WNW 22:48:21 10° NNE
Lacrosse 5 rocket 3.3 22:41:24 10° N 22:43:19 13° NNE 22:43:19 13° NNE
CZ-2C R/B 3.5 22:41:39 10° S 22:43:39 13° SSE 22:45:28 10° SE
USA 229 DEB 4.0 22:37:20 10° NW 22:44:47 85° WSW 22:52:40 10° SSE
USA 229 4.0 22:37:25 10° NW 22:44:53 85° WSW 22:52:45 10° SSE
ARGOS 3.4 22:41:23 10° SE 22:46:31 45° ENE 22:51:38 10° N
COSMOS 2455 2.9 22:41:44 10° SSW 22:47:44 86° WNW 22:53:25 12° NNE
Cosmos 1833 Rocket 3.6 22:42:44 10° SW 22:48:08 47° WNW 22:53:33 10° NNE
Cosmos 858 Rocket 4.4 22:44:24 10° NNW 22:49:44 86° ENE 22:54:59 10° SSE
SKYMED 2 3.6 22:45:30 10° NNE 22:49:48 59° E 22:54:05 10° S
Cosmos 1500 3.0 22:46:41 10° N 22:50:26 84° E 22:54:08 10° S
Meteor 2-14 Rocket 4.4 22:44:28 10° N 22:50:36 88° E 22:56:41 10° S
ATLAS CENTAUR R/B 3.9 22:41:18 10° WSW 22:51:20 47° NW 22:54:53 16° NNE
Landsat 5 3.8 22:50:05 24° NE 22:52:08 41° E 22:55:53 10° S
Meteor 2-6 Rocket 4.4 22:49:15 10° SSE 22:54:48 49° E 23:00:14 10° NNE
SL-08 RB Rocket 4.2 22:52:03 10° SE 22:56:17 36° ENE 23:00:30 10° N
PAYLOAD B 4.4 22:52:58 10° S 22:58:34 79° WSW 23:04:12 10° NNW
USA 234 3.3 22:52:17 10° SE 22:58:50 82° SW 23:05:25 10° NW
Cosmos 1570 Rocket 3.9 22:54:41 10° S 22:59:51 65° ESE 23:03:29 20° NNE
Cosmos 540 Rocket 4.4 22:57:09 10° SW 23:02:03 47° WNW 23:06:59 10° N
CZ-4B R/B 3.1 22:59:07 10° SSE 23:04:33 82° ENE 23:09:56 10° NNW
Sich 1 3.7 23:01:26 10° NNW 23:05:38 56° W 23:09:51 10° S
GEOS 3 Rocket 4.3 23:05:33 31° ENE 23:06:10 32° NE 23:10:45 10° NNW
Cosmos 1814 Rocket 3.9 23:01:43 10° SSW 23:06:58 87° ESE 23:10:55 18° NNE
Cosmos 44 Rocket 4.5 23:04:46 10° NNW 23:08:01 25° NNE 23:08:01 25° NNE
CZ-2C R/B 2.5 23:05:23 10° NNE 23:10:36 86° WNW 23:15:46 10° SSW
Cosmos 1818 4.3 23:06:18 10° NNW 23:11:07 32° NE 23:11:07 32° NE
GPS 2-04 Rocket1 3.8 23:07:44 10° WSW 23:11:33 37° S 23:12:58 28° SE
Meteor 2-8 Rocket 4.3 23:05:39 10° S 23:11:44 69° E 23:17:52 10° NNE
Meteor 2-21 Rocket 4.4 23:06:33 10° N 23:12:40 84° W 23:18:42 10° S
Meteor 1-10 Rocket 4.4 23:08:05 10° SSE 23:13:40 52° E 23:16:43 26° NNE
Cosmos 1900 4.2 23:09:22 10° SSW 23:14:09 66° ESE 23:15:36 43° NE
NOSS 2-2 (D) 4.4 23:08:54 10° NNW 23:14:27 81° NE 23:22:16 10° SE
deb Chang Zheng 4 3.6 23:12:35 10° S 23:16:53 79° WSW 23:21:13 10° NNW
CZ-4C R/B 3.9 23:18:26 34° S 23:18:26 34° S 23:20:31 10° S
Cosmos 1666 2.6 23:16:19 10° N 23:20:03 79° W 23:23:45 10° S
Cosmos 1515 Rocket 4.2 23:16:29 10° SSE 23:19:38 38° SE 23:19:38 38° SE
Feng Yun 1-1 Rocket 4.3 23:19:47 10° SSE 23:25:38 66° ENE 23:31:28 10° N
CZ-4C R/B 2.9 23:22:18 10° NNW 23:29:44 71° NE 23:36:22 18° SE
Cosmos 2360 Rocket 4.4 23:27:28 10° N 23:27:34 10° N 23:27:34 10° N
Cosmos 2208 Rocket 4.1 23:27:28 10° SSW 23:32:51 81° WNW 23:35:28 32° NNE
Cosmos 1812 4.4 23:30:22 10° SW 23:33:51 33° WNW 23:36:51 13° NNW
H-2A R/B 3.5 23:29:50 10° SSW 23:34:40 38° W 23:39:25 10° NNW
COSMO-SKYMED 1 3.8 23:34:00 12° N 23:37:48 39° WNW 23:41:50 10° SW
Spot 2 4.3 23:41:47 10° SSE 23:46:53 85° ENE 23:52:04 10° NNW
Cosmos 921 Rocket 3.6 23:44:12 10° SSW 23:47:24 51° SW 23:47:24 51° SW
Cosmos 1633 Rocket 4.2 23:45:15 10° NNW 23:49:22 42° W 23:53:30 10° SSW
Cosmos 2322 Rocket 3.9 23:45:38 10° N 23:47:27 19° N 23:47:27 19° N
